Location: Bishopstone
(51.0167°N, 1.9000°W)
Time: 03:46:34
(UTC+00:00)

Meteor 2-5 Rocket - Pass Details

Date: 16 September 2019
Orbit: 834 x 911 km, 81.2° (Epoch: 19 October)

Event Time Altitude Azimuth Distance (km) Brightness Sun altitude
Rises 19:57:16 0° 349° (N) 3,468 7.4 -15.5°
Reaches altitude 10° 19:59:45 10° 354° (N) 2,538 6.6 -15.9°
Maximum altitude 20:05:26 56° 72° (ENE) 1,054 3.9 -16.7°
Enters shadow 20:08:51 24° 142° (SE) 1,750 4.8 -17.2°
